Temp
25 23 22 23 24 25 26 27 27 27 28 29 28 27 26 25 26 30 32 31 31 30 29 31 30 31 32 32 33 32 32 32 29 27 27 27 27 25 22 20 19 19 18 20 21 22 22 22 22 21 21 21 21 21 21 21 22 22 22 21 21 21 20 21 21 21 21 21 21 21 21 20 20 20 20 19 19 19 19 19 19 19 18 18 18 18
24 22 23 24 25 26 27 27 28 27 28 29 28 27 26 26 27 31 32 31 31 29 28 31 31 31 32 32 32 32 32 31 28 27 27 27 26 23 20 19 18 17 18 19 21 21 21 21 20 21 21 21 21 21 21 21 22 21 21 21 21 21 21 21 21 20 20 20 20 20 20 20 20 20 20 20 20 20 19 19 19 19 18 18 18 18
23 22 24 26 26 27 27 27 27 27 28 28 28 27 25 27 28 30 32 32 31 29 29 31 30 30 33 33 32 32 32 31 28 27 27 27 26 22 21 20 18 17 18 19 20 20 20 20 20 20 21 21 21 21 21 21 22 21 21 21 21 21 21 21 20 20 20 20 19 19 19 19 19 20 20 20 20 20 19 19 19 19 19 18 18 18
21 23 25 26 27 27 27 27 27 27 27 27 27 25 24 28 28 26 30 32 31 30 30 31 29 30 33 32 32 32 33 32 29 28 28 27 26 24 22 21 19 17 18 19 20 18 19 20 19 20 21 21 21 22 22 22 22 22 22 21 21 21 21 21 20 20 20 19 19 19 19 19 19 19 19 20 19 19 19 19 19 19 19 19 19 18
23 25 26 26 27 27 26 27 27 26 25 26 27 26 25 28 28 27 30 32 31 30 31 30 26 27 31 31 31 31 32 32 30 30 30 27 26 25 24 23 21 19 17 19 19 18 18 19 19 20 20 21 21 22 22 22 22 22 21 21 21 21 21 21 20 20 20 20 19 19 19 19 19 19 19 19 20 20 20 20 19 19 19 19 19 18
25 26 27 26 26 27 26 26 27 26 24 25 27 28 28 30 30 30 31 30 26 25 29 29 23 23 29 30 30 31 30 31 31 30 29 26 25 25 24 24 23 21 19 18 19 19 19 19 19 20 20 21 21 21 21 21 21 21 21 21 21 21 21 21 20 20 20 20 20 20 19 20 20 20 20 20 20 20 20 20 20 20 19 19 18 18
26 27 27 26 26 26 26 26 27 27 24 23 26 29 29 30 31 30 29 27 23 23 28 30 24 22 26 28 30 31 30 30 29 29 28 25 24 24 23 23 23 22 20 19 19 19 19 19 19 20 20 20 21 20 20 20 20 21 21 21 21 21 21 21 20 20 20 20 20 20 20 20 20 20 20 20 20 20 20 20 20 20 19 19 18 18
26 27 27 26 26 26 26 25 27 28 24 23 28 29 28 30 30 30 28 25 24 26 28 29 27 23 22 25 30 31 29 28 28 28 28 25 24 23 21 21 21 21 21 20 19 19 19 19 19 19 20 20 19 19 20 19 19 20 20 20 20 21 21 21 20 20 20 20 20 20 20 20 20 20 20 20 20 20 20 20 20 20 19 19 19 18
26 27 27 27 26 25 26 26 28 28 26 26 29 30 29 29 30 30 28 25 26 25 23 25 27 23 21 25 30 30 28 27 28 29 28 25 23 21 20 20 20 20 20 20 19 19 19 19 18 19 19 19 19 19 19 19 19 19 19 19 20 20 20 20 20 20 20 20 20 19 19 19 20 20 20 20 20 20 20 20 20 20 19 19 19 19
27 26 27 27 26 26 27 28 28 28 27 28 30 30 30 30 29 30 29 26 25 23 21 23 25 23 22 24 27 28 27 27 29 28 26 23 21 20 19 19 20 20 20 19 19 19 19 18 18 18 18 18 19 19 19 19 19 19 19 20 20 20 20 20 20 20 20 19 19 19 19 19 19 19 19 19 19 19 20 20 20 19 19 19 19 18
27 27 27 28 28 27 27 28 28 29 29 28 29 29 29 29 29 28 28 26 23 21 22 23 25 24 22 23 26 27 27 28 29 27 22 20 20 18 18 18 19 19 20 20 19 19 19 18 18 18 18 18 19 19 19 19 19 19 20 20 20 20 20 20 20 20 20 19 19 19 19 19 19 19 19 19 19 19 19 19 20 19 19 18 18 18
27 27 26 28 29 28 28 28 28 29 29 28 28 28 25 25 26 24 24 25 22 21 22 24 26 24 21 23 28 29 29 30 29 26 22 20 19 18 17 18 18 19 20 19 19 18 18 18 18 18 18 18 18 18 18 19 19 19 20 20 21 20 20 20 20 20 20 20 19 19 19 19 19 19 19 19 19 19 19 19 19 19 19 18 17 18
26 27 27 27 28 29 27 26 27 28 29 28 27 25 23 22 22 21 22 22 21 21 23 25 26 23 22 24 28 31 30 29 27 25 23 21 20 19 18 18 18 18 18 18 18 18 18 18 18 18 18 18 18 18 18 18 18 19 19 20 20 20 20 19 19 19 19 19 19 19 19 19 19 19 19 19 19 19 19 19 19 19 19 18 17 18
23 26 27 26 27 28 27 25 24 25 27 26 25 23 22 21 21 21 21 21 21 22 24 26 25 23 23 23 26 28 26 23 22 22 22 21 20 19 18 18 18 18 18 18 18 18 18 18 18 18 18 18 18 18 17 18 18 18 18 18 19 19 19 19 19 19 18 19 19 19 19 19 19 19 19 19 19 19 19 19 19 19 18 18 17 17
21 22 25 26 26 27 27 26 26 26 26 26 27 26 23 22 21 21 21 21 21 22 23 25 24 22 22 22 23 26 24 22 22 21 21 20 18 18 17 17 17 17 17 17 17 17 17 18 18 17 17 17 17 17 17 17 17 17 17 18 18 18 18 18 18 18 18 18 18 18 18 18 18 18 19 19 19 19 19 19 18 18 18 17 17 17
21 21 25 27 27 27 26 27 28 28 25 26 29 26 23 24 24 22 22 22 21 21 22 22 21 21 21 21 23 24 23 22 22 20 19 18 18 17 17 17 17 16 17 17 17 17 17 18 17 17 17 17 17 17 17 17 17 17 17 17 18 18 18 18 18 17 17 17 17 17 17 17 17 18 18 18 18 19 18 18 18 17 17 17 16 16
21 22 26 27 26 27 27 26 29 27 25 26 26 24 25 28 27 22 21 22 22 21 22 22 20 20 21 20 21 22 22 21 20 19 19 18 17 17 16 16 16 16 17 17 17 17 17 17 17 17 17 17 17 17 17 17 17 17 17 17 17 17 17 17 17 17 17 16 17 17 17 17 17 17 17 17 18 18 18 17 17 17 17 17 16 16
22 22 26 27 25 27 28 27 28 28 28 26 23 25 28 29 27 24 21 21 21 21 21 21 20 19 20 19 19 20 21 20 20 19 18 17 17 16 16 16 16 16 17 17 17 17 17 17 17 17 17 17 17 17 17 17 16 16 16 16 16 16 16 16 16 16 16 16 16 16 16 16 16 16 17 17 17 17 17 16 16 17 17 17 16 16
24 22 24 27 26 27 29 27 25 27 29 28 26 28 28 24 23 23 22 21 21 21 21 21 20 20 20 20 19 20 20 20 19 18 17 16 16 16 16 16 16 16 16 16 17 17 17 17 17 17 17 17 17 17 17 16 16 16 16 16 16 16 16 16 16 16 16 16 16 16 16 16 16 16 16 16 17 17 17 16 16 16 16 16 16 16
25 22 22 26 27 26 27 25 23 24 28 29 28 29 28 24 23 23 22 22 21 21 21 21 20 21 22 21 20 20 21 20 19 18 17 16 16 16 15 16 16 16 16 17 17 17 17 17 16 17 17 17 17 17 16 16 16 16 15 15 16 16 16 16 16 16 16 16 16 16 15 15 16 16 16 16 16 17 16 16 16 16 16 16 16 15
25 22 21 24 26 25 24 24 24 24 25 26 25 25 25 25 25 24 23 23 22 21 21 21 20 21 22 23 22 22 21 20 19 17 16 16 16 16 16 16 16 16 16 17 17 16 16 16 16 17 17 17 16 16 16 16 16 15 15 16 16 16 16 16 16 16 16 16 15 15 15 15 15 15 15 16 16 16 16 16 16 16 16 16 16 15
24 23 21 22 23 23 23 26 27 27 27 26 25 24 24 24 24 23 22 23 23 22 21 21 21 20 21 22 23 22 21 20 19 17 16 16 16 16 16 16 16 16 16 16 16 16 16 17 17 17 17 16 16 16 16 16 16 16 16 16 16 16 16 16 16 16 15 15 15 15 15 15 15 15 15 16 16 16 16 16 16 16 15 15 16 16
24 23 22 21 22 23 25 27 27 27 28 28 26 26 27 26 23 21 21 22 22 22 22 22 21 20 20 20 20 21 21 19 18 17 16 16 16 15 16 16 16 16 16 16 16 16 16 17 17 17 17 16 16 16 16 16 16 16 16 16 16 16 16 16 15 15 15 14 14 14 14 15 15 15 15 15 15 15 15 16 15 15 15 15 15 15
24 23 21 21 23 24 26 27 27 27 27 27 26 27 27 26 25 24 24 23 22 22 22 22 20 19 19 18 17 18 19 18 17 17 16 15 15 15 16 16 16 16 16 16 16 17 17 17 17 17 17 17 17 16 16 16 16 16 16 16 16 16 16 15 15 15 14 14 14 14 14 14 14 14 15 15 15 15 15 15 15 15 15 15 15 15
23 22 21 21 21 22 23 24 24 25 26 25 26 27 27 27 27 26 25 24 22 22 22 22 20 18 17 18 17 17 18 17 16 16 16 15 15 15 15 15 15 16 16 16 16 17 17 17 17 16 16 17 17 16 16 16 16 16 16 16 16 16 15 15 15 15 14 14 14 14 14 14 14 14 14 14 14 14 14 14 15 15 15 15 15 15
23 22 22 21 20 20 20 21 22 23 24 25 26 27 27 27 27 25 23 22 21 22 22 21 19 17 17 17 17 17 16 16 16 16 16 16 16 15 15 15 16 16 16 16 16 16 16 16 16 16 16 16 17 16 16 16 16 16 16 16 16 16 15 15 15 15 15 14 14 14 14 14 13 13 13 13 13 13 14 14 14 14 14 14 15 15
23 23 22 21 21 21 21 22 24 25 24 23 24 26 26 27 27 25 23 22 22 22 22 20 18 18 17 17 17 17 16 16 16 16 16 16 15 15 15 15 16 16 15 15 15 15 15 15 16 16 16 17 17 17 16 16 16 16 16 16 16 16 15 15 16 15 15 15 15 14 14 13 13 13 12 12 13 13 13 13 13 13 13 13 14 14
23 22 22 22 22 23 23 24 25 25 24 23 24 25 26 27 26 25 22 23 23 22 21 20 19 18 18 17 17 16 16 16 15 16 15 15 15 15 15 16 16 16 15 15 15 15 15 15 16 16 17 17 17 17 17 17 16 16 16 16 16 16 16 16 16 15 15 14 14 14 13 13 12 12 12 12 12 12 12 12 12 12 12 13 13 14
22 21 22 22 22 23 24 24 24 24 24 25 25 25 25 26 25 24 23 25 25 22 20 20 20 19 19 18 17 16 16 15 15 15 15 15 15 15 15 16 16 15 15 15 15 15 15 15 16 16 17 17 17 17 17 17 17 17 16 16 16 16 16 16 15 15 14 14 13 13 13 12 12 12 12 12 11 11 11 10 10 11 11 12 12 13
22 21 21 22 21 22 23 23 23 24 23 24 25 26 26 26 26 25 25 25 24 22 21 20 20 19 19 18 17 16 16 16 15 16 15 15 15 15 15 16 16 15 15 15 15 15 15 16 16 17 17 17 17 17 17 17 17 17 17 17 17 16 16 15 15 14 14 13 13 13 12 12 12 12 11 11 11 11 10 9 9 10 10 10 11 11
22 19 19 21 20 21 22 21 22 23 22 22 23 25 26 25 25 25 24 23 22 20 20 19 18 17 17 17 17 16 16 16 15 15 15 16 16 16 16 16 16 15 15 15 15 15 16 16 17 17 17 17 17 17 17 17 17 17 17 17 17 17 16 15 14 14 13 13 13 12 12 12 12 11 11 11 10 10 9 9 9 9 9 10 10 10
22 19 19 20 20 20 20 21 21 21 21 21 21 22 23 23 22 22 23 22 21 19 18 18 17 15 15 16 16 16 16 16 15 16 16 16 16 16 16 16 15 15 15 15 15 15 15 16 17 17 17 17 18 18 17 17 17 17 17 16 17 16 15 14 14 13 13 13 13 12 12 12 12 11 11 11 10 10 9 9 8 8 8 9 9 9
22 20 19 20 20 19 19 19 20 19 19 19 18 18 20 21 20 21 22 22 21 20 19 18 17 16 16 15 15 15 16 16 16 16 16 16 16 16 16 16 15 15 16 15 15 16 15 16 16 17 17 17 18 18 17 17 17 17 16 16 16 16 14 13 13 13 12 13 13 12 12 11 11 11 11 10 10 9 9 8 8 8 8 8 8 8
21 21 20 20 20 18 17 18 19 18 18 18 16 16 19 21 20 19 18 18 19 20 19 18 17 16 15 15 15 15 16 16 16 17 17 17 16 16 16 16 15 15 16 15 15 16 15 15 15 16 17 17 17 17 17 17 17 17 16 16 16 15 14 13 13 12 12 12 12 12 12 11 11 11 11 10 10 9 9 8 8 7 7 7 7 7
20 20 19 19 19 18 17 17 17 16 17 16 15 16 19 20 19 18 17 17 17 17 17 16 15 15 15 16 16 16 16 16 16 16 17 17 16 16 16 15 15 15 15 15 15 15 15 14 14 15 16 16 17 17 17 17 17 17 17 16 16 15 14 13 12 12 12 11 11 12 12 11 11 11 10 10 9 9 8 8 7 7 7 7 7 7
20 20 19 19 19 18 17 17 16 15 16 16 15 16 18 19 18 18 16 16 16 16 16 15 15 15 15 15 15 15 15 15 15 15 16 16 16 16 15 15 15 15 15 14 14 14 14 14 14 14 14 15 16 17 17 16 16 16 16 16 15 15 14 13 12 11 11 11 11 11 11 11 11 11 10 10 9 9 8 8 7 7 7 7 6 6
21 21 20 19 19 18 17 15 15 15 15 16 16 16 17 18 19 18 16 15 16 16 15 15 14 14 14 14 14 14 14 13 12 12 14 15 15 15 15 15 14 14 14 13 13 13 13 14 14 14 14 14 15 16 16 16 16 16 16 15 15 14 13 12 11 11 11 11 11 11 11 11 11 10 10 9 9 8 8 8 8 8 7 7 7 6
21 21 21 19 18 18 17 15 14 15 16 16 17 18 19 19 19 18 16 14 15 15 14 14 13 13 13 13 13 13 13 12 11 11 13 14 14 14 14 13 13 13 13 13 13 13 13 13 13 14 14 14 14 15 15 15 15 15 15 14 14 14 13 12 11 11 11 11 11 10 10 10 10 10 9 8 8 8 8 8 8 8 8 7 7 6
19 20 20 20 17 16 17 16 15 15 15 16 18 19 19 19 19 19 17 15 14 14 13 13 12 12 13 12 12 13 13 11 10 11 12 13 13 13 13 13 13 13 13 13 13 13 13 13 13 13 14 14 13 14 14 14 15 15 14 14 14 13 13 12 11 11 11 11 10 10 10 9 9 9 9 8 8 7 7 8 8 8 8 8 7 7
18 18 19 19 16 15 15 15 15 15 15 16 18 19 19 19 18 18 17 16 15 14 13 12 12 12 12 12 12 13 13 11 10 11 12 12 13 13 13 13 13 13 13 13 13 13 13 13 13 13 13 13 13 14 13 14 14 14 13 13 13 13 12 12 12 11 11 11 10 10 10 9 9 9 9 8 8 8 7 7 7 8 8 7 7 7
16 17 18 19 17 16 16 15 15 15 15 16 18 19 19 18 17 17 17 16 15 15 14 12 12 11 12 12 12 12 12 12 11 11 12 12 12 13 13 13 13 13 13 13 13 13 13 13 13 13 14 14 13 13 13 13 14 14 13 13 13 12 12 12 12 11 11 11 10 10 9 9 9 9 9 8 8 8 8 8 8 8 7 7 7 7
16 17 17 18 18 17 17 16 15 14 14 15 18 19 18 17 16 16 16 16 15 15 14 12 12 12 12 12 11 11 11 11 12 12 12 12 12 13 13 13 12 12 13 13 13 13 13 13 13 13 13 13 13 13 13 13 13 13 13 13 13 12 12 12 11 11 11 11 10 10 9 9 9 9 9 8 8 8 8 8 8 8 8 8 8 8
16 16 16 16 16 16 16 16 15 15 14 15 16 18 17 16 16 16 16 16 15 14 13 12 12 12 11 10 10 11 11 11 11 12 12 12 12 12 12 12 12 12 13 13 13 13 13 13 13 13 13 13 13 13 12 12 12 12 12 12 12 12 12 12 11 11 11 11 10 10 10 10 10 9 9 9 9 8 8 8 8 8 8 9 8 8
16 15 15 14 14 15 16 15 14 14 15 15 16 16 17 17 17 16 15 14 14 13 13 12 12 11 10 10 11 11 10 11 11 11 11 11 11 12 12 12 12 12 12 13 13 13 13 13 13 13 13 12 12 12 12 12 12 12 12 12 12 12 11 11 11 11 11 11 10 10 10 10 10 10 9 9 8 8 8 8 8 8 8 9 9 9
16 15 14 12 12 13 14 13 13 14 15 16 16 16 16 17 16 16 14 13 13 13 12 11 11 10 10 11 11 11 11 11 11 11 11 11 11 11 12 12 12 12 12 13 13 13 13 13 13 13 12 12 12 12 12 12 12 12 12 12 12 11 11 11 11 11 11 11 11 10 10 9 9 9 9 9 8 7 7 7 7 7 7 8 8 8
16 15 14 13 11 12 12 12 13 14 15 15 16 16 16 16 15 15 14 13 12 12 11 11 10 11 11 11 11 11 11 11 11 11 11 11 11 11 12 12 12 12 12 13 13 13 13 13 13 12 12 12 12 12 12 12 12 12 12 12 11 11 11 11 11 11 11 11 10 10 10 9 8 8 8 8 8 7 7 6 6 6 7 7 7 8
17 17 16 14 13 13 12 12 13 14 14 15 15 15 15 15 15 14 14 13 12 12 11 11 11 11 11 10 10 10 10 11 10 10 10 10 10 11 11 10 10 11 11 12 12 12 13 13 12 12 12 12 12 12 12 12 12 12 11 11 11 11 11 11 11 11 11 11 11 10 10 9 8 8 8 8 8 7 7 6 6 6 6 6 7 7
19 18 17 15 14 14 12 12 13 14 14 15 15 14 14 14 14 14 13 13 12 11 11 11 11 10 10 10 10 10 10 10 10 9 9 9 9 9 9 9 9 9 10 11 12 12 13 12 12 12 12 12 12 12 12 12 12 11 11 11 11 11 11 11 11 11 11 11 11 11 10 10 9 8 8 8 7 7 7 6 6 6 6 6 6 6
19 18 16 14 12 12 11 12 13 13 13 14 14 14 14 14 13 13 12 12 11 11 10 11 11 10 10 10 10 10 9 9 9 8 8 8 8 8 8 8 9 9 10 11 12 12 12 12 12 12 12 12 12 12 12 12 12 11 11 11 11 11 11 11 11 11 11 11 11 11 11 11 10 9 8 8 7 7 7 6 6 6 6 6 6 6
18 17 15 14 12 11 11 12 13 13 12 13 14 14 13 13 13 12 11 11 11 11 10 10 10 10 10 10 10 10 9 8 8 8 8 7 8 8 8 9 9 9 11 12 12 12 12 11 11 11 11 11 11 12 12 12 12 12 12 11 11 11 11 11 11 11 11 11 11 11 11 11 11 10 9 8 7 7 7 6 6 6 6 6 6 6
16 16 16 16 15 13 13 13 14 14 12 12 13 13 13 13 13 12 12 12 11 11 11 10 10 10 10 10 10 10 9 9 9 9 9 9 9 9 9 9 10 10 10 12 12 11 11 11 11 11 11 11 11 11 11 11 11 11 11 11 11 11 11 11 11 11 10 10 11 11 11 11 11 10 10 9 8 7 7 6 6 6 6 6 6 6
Height
745 755 758 756 752 747 745 742 741 737 731 729 731 735 737 734 731 720 716 718 721 734 738 733 736 733 726 724 725 729 728 729 738 747 751 755 759 765 772 779 784 790 793 791 788 788 788 789 790 791 792 792 793 794 794 795 795 796 797 798 798 799 800 800 801 802 802 803 804 804 805 805 805 806 806 806 806 806 806 806 806 807 807 807 807 807
744 755 753 746 744 739 739 738 737 736 733 729 727 730 732 731 725 713 710 715 718 731 737 730 732 730 722 722 723 726 730 735 743 750 753 754 759 768 773 779 785 791 794 793 790 789 790 791 792 792 793 793 794 794 795 795 796 796 797 797 798 798 799 799 800 801 802 803 803 803 803 804 804 804 804 805 804 804 804 803 804 804 805 805 805 805
749 751 744 738 737 735 735 734 735 737 735 734 727 727 731 727 721 713 708 711 717 729 735 730 732 729 718 718 723 725 728 734 741 746 751 753 759 768 773 778 785 791 794 793 792 791 791 791 792 793 794 794 794 794 795 795 796 797 797 797 798 798 798 799 800 800 801 802 802 803 803 803 803 803 803 803 802 802 802 802 802 802 803 803 803 803
751 745 736 733 732 734 735 733 735 737 736 737 731 729 730 722 722 724 713 710 716 725 730 729 733 728 718 720 725 725 725 729 737 742 745 751 757 764 770 776 785 792 797 795 793 793 792 793 793 793 794 793 794 795 795 796 797 797 797 797 797 797 798 799 799 800 800 801 802 802 803 802 802 802 802 801 801 801 801 801 801 801 801 801 802 802
740 734 728 730 730 733 736 734 735 739 740 736 730 729 727 718 719 721 712 707 716 726 726 728 741 734 722 729 732 728 729 730 734 737 742 749 755 761 767 773 780 790 799 799 794 794 793 792 792 792 792 793 794 795 796 797 797 797 797 797 797 797 798 798 798 799 799 800 801 801 802 802 801 801 801 800 800 799 799 799 799 800 800 800 801 801
729 723 723 729 730 730 735 735 733 737 740 737 730 725 721 715 713 713 711 714 731 744 731 729 754 751 728 730 734 731 734 734 734 737 745 756 760 763 768 772 776 784 793 797 794 793 792 790 791 791 792 793 794 796 797 798 798 798 797 797 797 797 797 798 798 798 799 799 800 800 801 801 800 800 799 799 799 799 799 798 798 799 799 799 799 799
722 717 719 726 729 729 733 733 728 730 739 740 729 721 719 714 709 711 716 726 743 750 732 725 751 757 738 735 734 730 737 740 741 744 750 761 766 766 771 774 776 781 786 791 792 792 793 792 792 793 794 795 796 797 798 799 799 798 798 798 797 797 797 798 798 798 799 799 799 800 800 800 800 799 799 798 798 798 798 798 797 798 798 798 798 798
717 715 718 723 726 729 732 731 724 724 737 738 722 718 722 718 713 715 721 732 736 736 733 726 734 747 746 741 735 732 742 747 747 749 750 758 765 768 773 776 779 783 784 788 792 793 795 795 794 795 796 797 797 798 799 799 800 799 799 798 798 798 798 798 798 798 798 799 799 799 799 799 799 799 798 798 797 797 797 797 796 796 796 796 796 796
713 715 716 719 726 727 726 725 719 720 732 729 715 715 719 719 717 713 719 729 728 735 748 736 728 746 751 739 731 732 743 750 748 748 750 755 765 770 775 779 781 783 785 788 792 793 794 795 796 797 798 798 799 800 800 800 801 800 799 799 798 798 798 798 798 798 799 799 799 799 799 799 799 798 798 797 797 797 796 796 795 795 795 795 795 795
709 711 709 712 722 724 719 718 715 717 725 720 712 714 715 717 717 714 718 723 729 747 757 741 731 749 752 736 732 737 742 748 745 748 756 761 768 774 777 780 781 783 785 788 790 792 793 795 797 799 799 800 800 800 801 801 801 801 800 799 799 798 798 798 799 799 799 799 799 799 799 799 799 798 797 797 796 796 795 795 794 794 793 793 794 794
701 704 705 704 709 715 714 713 711 712 717 717 715 716 719 721 718 721 718 716 738 758 752 736 727 742 755 737 726 734 737 739 741 749 764 771 776 781 783 784 784 785 786 788 791 792 794 796 798 800 800 801 801 801 801 801 801 801 800 799 799 799 799 799 799 799 799 799 799 799 799 799 799 798 797 797 796 795 795 794 793 793 792 792 792 792
700 704 709 703 699 705 710 711 710 708 710 718 721 720 728 733 730 734 727 723 751 763 745 730 721 736 758 740 719 724 727 728 736 748 764 776 783 787 789 790 789 788 789 791 794 795 796 798 799 800 801 801 802 802 802 801 801 801 800 800 799 799 799 799 799 800 800 800 799 799 799 799 798 798 797 797 796 795 794 794 793 792 792 791 791 790
706 704 707 706 699 701 713 717 716 712 711 720 725 725 737 749 753 756 747 740 754 754 734 724 724 735 748 738 721 719 723 728 737 749 762 772 779 785 789 791 791 792 793 795 796 796 797 798 800 801 802 802 803 802 802 802 802 801 800 800 800 800 800 800 800 800 800 800 800 799 799 799 798 798 797 796 796 795 794 793 792 791 791 791 790 789
718 710 703 707 703 699 709 719 724 723 718 722 726 730 739 750 766 774 761 750 754 748 726 716 726 736 743 747 735 725 732 742 748 758 766 770 777 783 788 791 793 795 796 797 797 798 799 800 801 802 803 803 803 803 803 803 803 802 802 801 801 801 801 801 801 801 801 800 800 799 799 799 798 797 797 796 796 795 794 793 792 791 791 790 789 787
729 726 707 704 707 705 709 712 714 717 718 719 715 720 729 735 753 768 761 755 756 748 729 721 735 745 753 763 749 733 742 749 754 764 769 773 780 785 789 792 795 797 797 798 799 799 800 800 801 802 803 803 804 804 804 804 804 803 803 803 803 802 802 802 802 802 801 801 800 800 799 799 798 798 797 797 796 795 794 793 792 790 789 788 787 786
724 725 702 698 704 706 712 709 702 708 720 718 708 715 724 721 728 745 748 743 747 752 742 739 757 761 759 764 752 743 750 753 760 770 774 781 784 786 792 794 795 798 799 800 800 800 800 800 801 802 803 804 804 805 805 805 805 805 805 804 803 803 803 802 803 802 802 801 800 800 800 799 799 798 797 796 796 795 794 793 791 789 788 787 786 784
722 720 697 697 703 700 708 709 699 704 715 716 715 719 714 707 714 734 746 738 743 761 751 746 773 776 767 772 765 755 759 762 769 776 779 785 786 788 794 795 797 800 800 800 799 800 800 800 802 803 803 805 805 806 806 805 806 806 805 805 804 804 803 803 803 803 802 802 801 801 800 800 799 798 798 797 796 795 794 792 791 789 787 786 784 783
715 716 697 695 706 699 697 704 701 697 700 711 723 715 703 707 713 724 745 750 755 769 751 743 773 782 776 784 779 769 769 770 773 778 783 788 788 792 795 796 800 801 800 800 799 800 801 801 803 803 804 805 806 806 806 806 807 806 806 806 805 804 804 804 804 803 803 802 802 802 801 800 800 798 798 797 796 795 793 792 790 788 786 784 782 781
705 716 703 692 704 700 692 704 712 702 692 699 709 702 704 725 729 725 741 753 762 771 755 747 766 773 769 777 779 775 773 772 775 780 787 790 791 794 796 798 801 801 801 801 800 801 802 802 804 804 805 806 806 807 807 807 808 807 807 806 805 805 805 805 805 804 804 803 803 803 802 801 800 799 798 796 796 794 793 791 789 787 785 783 781 779
699 715 713 695 697 701 699 709 719 711 698 695 700 700 705 719 725 726 731 738 751 763 759 759 770 765 755 760 768 768 767 770 777 783 788 792 792 794 797 799 801 802 802 801 801 802 802 804 805 805 806 806 806 807 807 808 809 808 808 807 806 806 805 805 805 805 805 804 803 803 802 801 800 799 798 796 795 794 792 791 790 787 785 783 781 779
698 713 719 703 695 703 709 710 711 708 705 705 707 710 713 714 716 721 722 721 734 749 754 763 772 763 748 747 752 756 761 766 774 783 789 791 792 795 798 800 801 802 803 802 803 804 804 806 806 806 807 807 807 808 808 809 810 809 809 807 807 807 806 806 806 805 805 804 804 803 802 801 800 798 797 796 795 794 792 791 789 787 785 782 780 778
702 711 719 713 706 709 708 700 699 699 699 705 709 710 714 716 720 731 734 721 718 731 739 746 761 765 754 746 746 749 757 765 770 781 790 791 793 797 799 801 802 803 804 804 805 805 806 806 806 806 807 808 808 809 809 810 810 810 809 808 808 807 807 807 806 806 806 805 804 804 802 801 800 799 797 796 795 793 792 791 789 787 785 782 780 778
698 708 718 719 711 707 701 694 697 698 693 697 705 706 706 709 717 733 740 727 717 723 724 726 751 770 761 752 755 755 757 766 773 780 788 792 796 798 800 801 802 804 806 806 806 806 807 807 807 807 807 808 809 809 810 811 811 811 810 809 808 808 807 807 807 806 806 806 805 804 803 802 800 799 798 796 795 793 792 791 789 787 785 782 780 778
700 712 720 722 713 704 698 694 696 697 697 700 703 702 702 703 708 716 719 716 721 728 724 729 759 778 767 759 767 768 765 772 779 782 788 795 797 799 801 802 804 806 807 807 806 806 806 807 807 808 809 809 810 811 812 812 812 812 811 809 809 808 808 808 807 807 807 807 806 805 804 803 801 800 798 796 795 794 793 791 789 787 785 782 781 779
705 715 720 727 730 724 716 711 706 704 704 703 700 699 700 697 699 706 708 712 726 729 722 735 767 781 773 767 772 775 777 781 786 788 791 795 798 800 802 804 805 807 807 806 806 806 807 808 809 810 811 811 811 812 813 813 813 812 811 810 810 809 809 809 808 808 808 808 807 806 805 804 802 801 799 798 796 795 794 792 789 787 785 783 781 780
703 712 716 727 738 741 737 728 716 709 708 703 697 697 699 697 697 705 712 722 733 727 718 739 771 781 777 777 778 780 783 786 789 791 792 794 798 801 803 806 806 806 807 807 807 808 809 810 811 812 812 812 812 813 813 813 813 812 811 811 810 810 810 809 809 809 809 809 807 807 806 805 804 802 800 799 798 796 795 793 791 788 786 784 782 780
700 707 710 716 722 725 726 716 703 700 706 708 703 698 698 699 699 704 714 723 726 723 725 743 763 774 778 779 780 782 784 787 790 791 793 795 799 802 804 806 806 806 808 808 809 811 812 812 813 812 812 812 812 813 813 814 813 813 812 811 811 811 810 810 810 810 810 810 808 808 807 806 805 804 802 801 799 798 796 794 792 790 788 786 784 782
705 711 710 712 711 706 704 703 699 700 703 705 705 701 698 700 702 707 714 715 713 723 741 750 754 765 774 773 775 780 783 786 789 790 794 797 799 803 805 805 806 807 808 809 811 813 813 814 813 813 813 812 812 813 813 813 813 813 813 812 812 812 811 811 811 811 811 811 810 810 809 808 807 805 804 803 801 799 798 796 794 792 790 788 786 785
707 714 710 711 713 707 702 703 705 704 703 701 700 699 697 699 704 710 711 706 708 722 741 749 750 756 763 766 771 777 780 784 788 790 793 797 800 803 805 805 807 808 809 810 812 813 814 814 814 813 813 813 813 814 813 813 814 814 813 813 813 812 812 812 813 813 813 813 812 812 811 810 808 807 806 804 803 801 800 798 796 794 792 790 789 788
706 717 713 713 719 717 711 711 709 706 706 706 701 696 698 699 699 703 706 706 712 724 734 743 751 757 760 764 770 776 779 782 786 789 793 797 801 803 805 806 807 808 810 811 812 814 814 814 814 814 814 814 814 814 814 814 814 814 814 814 813 813 814 814 814 815 815 815 815 814 813 811 810 808 807 806 805 804 802 800 798 796 794 793 791 790
706 724 722 717 724 724 718 718 718 712 713 715 711 701 698 700 701 705 711 716 725 736 740 746 761 772 772 768 772 778 781 783 787 792 795 797 800 802 804 806 807 809 811 812 813 814 814 814 814 814 814 815 815 814 815 815 814 814 814 814 814 814 815 815 816 817 818 817 817 815 814 813 811 810 809 808 807 806 804 803 801 799 797 795 794 792
707 725 726 722 729 730 724 723 724 722 722 725 726 720 711 711 718 719 717 718 728 742 749 754 766 777 778 775 778 782 782 786 790 792 795 797 798 801 804 806 808 810 811 812 813 815 815 815 815 815 815 815 814 814 815 815 815 815 816 816 816 816 816 817 818 820 820 819 818 817 816 814 813 812 811 810 809 808 807 805 803 802 800 799 797 796
707 720 727 727 731 733 732 730 728 734 741 740 742 742 729 721 725 727 724 723 725 733 744 753 761 768 773 776 782 785 785 787 790 791 793 796 797 800 803 805 809 811 811 812 814 815 817 818 817 816 816 816 815 815 816 816 816 817 818 818 818 818 818 819 821 822 822 821 820 818 817 817 815 814 813 812 812 811 809 807 806 805 803 802 801 799
710 716 723 725 729 738 742 738 737 747 752 748 748 746 733 724 726 734 742 743 736 732 737 748 758 767 774 777 781 785 786 787 788 789 791 794 797 800 803 806 809 811 812 814 815 816 819 820 820 819 818 817 817 817 817 817 818 819 820 820 820 820 820 822 823 824 824 823 822 820 819 818 817 816 816 815 814 813 811 810 809 808 806 805 804 803
714 716 723 726 730 741 746 743 750 760 754 748 751 745 730 725 728 737 747 750 747 745 746 753 764 771 775 778 779 783 787 788 789 791 792 794 797 800 804 807 810 812 815 816 818 819 821 822 822 822 820 819 819 819 819 819 819 821 821 821 822 822 823 824 826 826 826 825 824 822 821 820 820 819 818 818 817 815 814 813 812 811 810 808 807 807
713 715 723 728 731 741 748 749 757 762 753 748 754 749 737 733 733 740 753 757 755 755 755 760 769 773 776 780 782 785 790 791 793 796 797 797 799 802 806 809 811 814 817 819 821 822 823 823 824 824 823 822 821 820 820 821 822 822 822 823 823 824 825 827 827 828 827 827 826 825 824 823 822 822 821 820 819 818 817 816 815 814 814 812 811 811
707 711 719 727 732 738 748 758 762 762 757 753 754 750 744 740 735 741 758 766 761 759 761 765 772 777 780 784 787 789 792 794 801 806 804 802 803 806 809 811 814 817 820 822 823 824 824 824 824 824 825 824 823 822 822 824 824 824 824 825 826 827 828 828 829 829 829 828 828 827 827 826 825 825 824 823 821 821 820 819 819 818 817 816 815 814
704 709 713 725 737 738 745 761 766 763 759 753 747 741 737 737 734 737 755 770 768 766 769 771 775 781 783 785 790 792 791 798 810 814 810 807 808 810 814 816 818 821 822 823 824 824 824 825 825 825 826 825 825 825 825 826 826 826 827 828 828 829 830 830 831 831 831 830 830 830 830 829 829 828 827 825 824 824 824 823 822 822 821 820 819 818
712 713 712 722 740 746 747 757 763 761 758 751 743 738 734 735 735 737 753 771 772 770 775 778 780 783 785 787 791 790 791 803 816 816 810 811 812 814 817 819 820 822 823 824 825 825 825 826 826 827 827 827 828 828 828 828 828 828 829 830 831 832 832 832 833 833 833 833 833 833 833 832 832 831 830 829 828 828 827 826 826 825 824 823 823 822
724 721 718 724 742 752 754 758 760 760 758 749 741 739 737 736 739 746 758 766 766 768 775 780 783 786 788 790 792 790 791 801 811 812 810 813 815 817 819 820 821 823 824 825 826 826 826 827 827 828 828 829 830 830 831 831 830 830 832 832 833 833 834 835 836 835 836 836 836 836 836 835 835 834 832 832 831 831 831 830 829 828 828 827 826 826
732 728 725 728 737 746 753 759 761 760 757 749 740 739 739 741 748 756 759 757 758 766 773 778 784 788 789 791 792 794 794 798 804 808 810 813 816 817 819 820 822 823 824 826 827 827 827 828 828 829 830 830 831 832 832 832 832 832 834 834 835 836 836 837 838 838 838 839 838 839 838 838 838 836 835 835 835 834 834 833 832 831 831 830 830 829
733 733 730 730 735 739 744 752 758 761 758 751 743 739 742 751 758 758 754 753 758 765 772 779 784 787 789 792 794 796 798 800 805 808 810 814 816 817 819 821 823 825 826 827 828 828 829 830 830 831 832 832 833 834 834 834 834 834 836 836 837 838 839 839 840 840 841 841 841 841 841 841 840 839 838 838 838 837 836 835 835 834 833 833 833 832
733 736 738 739 741 744 746 751 756 760 758 753 749 746 747 753 755 752 752 756 762 767 773 780 784 787 791 795 797 799 800 803 808 810 812 815 817 819 821 823 824 826 827 827 829 830 830 831 832 832 834 834 835 836 836 836 836 837 838 838 839 840 841 841 842 843 843 843 844 843 843 843 842 842 842 841 841 840 839 838 837 836 836 835 835 834
734 738 745 749 749 747 749 754 759 760 756 751 751 752 750 749 749 750 755 762 767 772 776 780 785 789 793 795 797 801 804 806 810 812 814 817 819 821 823 825 825 827 828 829 830 831 831 832 833 834 835 836 837 838 838 838 839 839 840 841 842 842 843 843 844 845 845 845 846 846 845 845 845 845 845 844 844 842 841 841 840 839 838 838 837 837
735 736 743 754 759 756 755 760 762 760 755 751 750 751 751 751 752 756 761 766 771 776 780 784 788 792 794 796 798 801 805 807 810 814 816 818 821 823 825 826 827 828 829 830 832 832 833 834 834 835 837 838 839 840 840 840 841 841 842 843 844 844 845 845 846 846 847 847 848 848 848 848 848 848 847 847 847 845 844 844 842 841 841 841 840 840
732 734 738 751 762 761 762 765 762 758 757 755 752 753 754 756 758 761 766 771 775 779 783 787 790 792 794 797 798 802 806 808 810 814 817 819 821 824 826 827 828 829 830 831 832 834 835 835 836 837 838 839 841 841 842 842 843 843 844 845 845 846 847 847 848 848 849 849 850 850 851 851 850 850 850 850 849 849 848 847 846 845 844 843 843 843
725 728 735 746 752 755 764 769 763 759 760 758 756 758 759 760 764 766 770 775 779 782 785 788 791 794 797 800 801 803 807 810 812 815 818 820 823 826 827 829 830 830 832 833 834 836 836 837 838 838 839 841 842 843 843 844 844 845 846 846 847 848 848 849 849 850 850 851 851 852 852 852 852 852 852 852 852 851 851 850 849 848 847 847 846 846
721 723 732 743 747 753 764 768 762 760 762 759 759 763 764 765 768 770 773 777 781 785 788 791 794 797 800 803 805 806 809 812 815 816 819 823 826 828 829 830 832 833 835 836 836 837 837 838 839 840 841 842 843 844 845 845 846 847 848 848 849 850 850 851 851 852 852 852 853 853 853 853 853 853 853 854 853 853 853 853 852 851 850 850 850 850
719 725 736 748 757 764 768 767 764 765 766 764 763 765 767 769 773 775 778 782 785 788 792 794 796 799 801 804 807 808 811 815 818 819 822 825 829 831 832 832 833 834 836 837 837 838 839 841 841 842 843 844 845 845 846 846 848 849 849 850 851 851 852 852 853 853 853 854 854 854 854 854 854 854 855 855 855 855 855 856 855 855 854 854 853 853
725 733 741 749 759 766 767 765 763 765 769 769 768 768 771 773 776 779 783 785 787 791 793 795 799 802 804 806 809 811 813 817 821 823 825 827 830 833 834 833 833 835 836 837 839 840 842 843 843 844 845 846 846 847 847 848 849 850 850 851 852 852 853 854 854 855 855 855 855 856 856 856 856 856 856 856 857 857 857 858 858 857 857 857 856 855
736 739 740 740 745 751 757 759 758 761 767 770 770 771 774 775 777 781 784 786 789 791 793 796 800 803 807 809 812 813 815 818 821 824 825 828 831 833 833 833 834 837 839 839 840 843 844 845 845 846 846 847 848 848 849 850 851 852 852 853 853 854 854 855 855 856 857 857 857 857 857 858 858 857 857 858 858 858 859 859 860 860 859 859 859 858
Wind_Speed
10 8 10 11 12 14 16 16 16 17 16 13 12 11 13 12 10 14 14 19 18 14 13 15 14 18 18 14 16 13 12 9 16 18 12 13 11 10 12 11 12 8 2 1 5 9 10 10 10 9 9 8 9 8 8 8 8 7 7 7 6 5 5 4 3 3 2 2 3 3 3 4 5 5 6 7 6 6 7 7 8 9 10 11 12 13
11 10 12 14 16 16 17 17 17 18 19 16 11 10 11 12 10 13 14 22 18 12 12 16 15 17 15 15 16 14 12 10 18 18 14 16 13 13 13 12 12 5 2 3 5 9 10 10 8 7 7 7 7 7 7 7 7 7 7 6 6 5 5 4 3 3 2 1 2 3 4 5 5 5 4 6 6 7 8 8 8 10 10 11 12 12
11 11 14 17 17 17 17 17 16 18 18 15 11 8 9 10 9 11 13 21 17 10 10 15 14 15 13 15 13 13 12 10 17 17 15 15 14 14 12 12 13 7 5 4 5 6 8 9 7 6 6 5 7 7 7 7 7 7 7 6 5 5 4 3 3 2 3 2 3 3 5 7 7 6 6 6 7 7 8 8 9 10 10 11 11 12
10 11 15 17 17 17 17 16 16 16 14 12 11 8 8 11 10 8 12 18 17 9 10 14 12 13 11 14 11 11 11 10 17 18 15 15 14 15 15 14 15 12 8 6 6 4 5 6 5 5 5 5 7 7 7 6 6 6 6 6 5 4 4 3 2 2 3 3 5 4 5 6 7 8 9 9 9 9 10 10 11 12 11 12 13 13
11 12 15 18 17 18 17 15 16 13 10 12 13 10 9 12 13 11 10 14 15 10 12 12 9 10 9 13 11 10 9 12 15 16 14 15 16 15 15 15 16 15 10 6 6 3 2 4 2 3 4 5 7 7 7 5 5 5 5 5 4 4 3 2 2 1 2 3 4 4 5 6 7 9 10 11 11 11 11 12 13 13 13 14 15 16
13 13 16 18 18 18 18 15 16 13 9 11 13 14 13 12 15 14 11 12 10 9 12 12 8 7 8 12 12 12 12 12 9 9 10 14 15 14 13 13 13 13 11 9 8 6 5 4 3 3 4 6 8 8 6 5 4 5 5 4 3 3 2 1 1 1 2 3 4 5 7 8 8 9 9 10 10 9 10 11 12 13 13 14 15 17
11 15 16 18 19 19 18 15 16 15 10 8 10 16 18 14 15 13 15 13 8 8 12 14 9 7 9 11 12 12 12 10 8 8 11 14 13 11 10 9 9 11 11 10 10 9 8 6 6 6 6 7 9 7 5 5 6 5 4 4 3 2 1 0 1 2 3 4 6 6 7 9 10 11 11 12 12 12 12 12 11 12 13 14 15 16
11 17 17 18 19 17 15 13 14 16 11 8 10 16 18 16 15 12 17 13 8 7 10 15 13 8 8 11 13 14 13 13 12 12 13 15 14 11 9 7 7 9 10 10 9 9 9 8 8 9 9 9 9 7 5 6 6 5 5 4 3 3 2 1 1 3 4 5 7 8 9 10 11 12 13 15 15 14 13 14 14 13 14 14 15 16
13 17 17 18 17 13 13 13 15 17 13 10 12 15 15 16 16 12 13 11 8 8 8 14 15 9 6 11 15 16 15 15 16 14 12 15 17 12 10 7 6 8 10 11 10 10 11 11 11 10 9 9 8 6 5 4 4 3 4 4 4 4 4 4 3 4 4 6 8 9 10 11 12 13 14 15 15 16 15 15 15 15 16 16 15 15
13 15 17 17 14 11 13 15 17 17 13 12 14 13 13 15 15 12 10 9 8 8 9 14 16 10 6 10 13 13 14 15 15 12 10 15 16 10 8 7 6 8 10 11 11 12 13 12 11 10 9 8 7 5 4 4 3 2 2 3 3 3 4 4 4 5 6 7 8 10 11 12 13 14 15 16 17 17 17 17 17 17 18 17 16 16
13 14 15 15 13 12 14 16 17 16 14 14 16 12 11 12 10 10 9 9 8 8 10 15 18 13 7 8 12 11 11 12 13 12 14 15 13 9 6 5 6 6 9 11 10 12 14 14 12 10 10 9 7 6 5 5 3 2 2 2 2 3 3 4 5 6 7 8 9 10 11 12 13 14 15 16 17 18 18 19 19 19 19 17 17 17
16 14 11 12 13 13 13 14 15 16 16 14 13 10 9 7 8 8 7 8 7 7 11 16 19 16 10 8 8 12 14 16 15 14 17 17 13 11 8 6 6 5 7 10 9 11 13 13 12 10 11 10 9 8 8 7 5 4 4 3 4 6 6 6 7 7 8 8 9 10 11 12 12 13 14 16 17 18 19 20 20 21 21 17 16 18
14 13 12 13 15 16 13 11 12 14 14 13 12 10 9 8 7 8 7 8 7 8 13 16 16 14 10 6 4 11 16 11 11 12 16 18 15 14 12 9 8 6 8 9 8 9 10 10 10 9 9 9 9 9 9 8 8 8 8 7 7 8 8 8 9 10 10 10 11 11 12 13 13 13 14 15 17 18 18 20 20 21 21 19 17 18
11 13 16 16 14 15 15 11 10 11 11 13 12 9 10 9 8 7 7 7 8 9 13 16 14 10 8 3 10 4 11 13 15 12 12 16 15 14 13 12 11 9 9 9 8 9 8 9 9 9 9 9 9 9 9 8 8 8 9 9 8 8 8 9 10 10 11 12 13 13 14 15 15 15 15 16 17 19 19 20 21 22 22 20 20 20
12 12 14 15 10 12 16 14 11 12 12 12 12 11 10 9 8 7 7 7 8 9 11 13 9 3 6 5 10 13 18 17 16 14 13 15 14 13 12 12 11 10 9 9 9 9 9 9 10 9 9 9 9 9 8 8 8 8 8 8 8 9 9 9 10 11 12 12 13 14 15 15 16 16 17 17 18 19 20 22 23 23 22 21 21 20
14 11 12 15 13 15 18 16 14 13 11 10 11 11 10 10 8 5 6 7 5 6 8 6 1 3 6 7 9 13 19 18 18 16 15 15 14 12 11 10 10 9 9 9 9 10 9 10 10 9 9 9 9 8 8 7 7 7 7 8 8 9 10 11 12 13 13 13 14 15 15 16 17 17 17 18 19 19 21 23 23 22 22 22 21 20
11 10 14 18 17 20 19 17 17 13 9 8 10 12 10 11 10 4 6 7 3 4 7 4 5 4 6 6 5 11 18 18 17 16 14 14 14 12 10 10 9 9 8 9 9 9 9 10 10 9 9 9 8 8 8 8 8 8 8 9 9 10 11 12 13 13 14 14 15 15 15 16 18 18 18 20 21 21 22 22 21 22 23 23 22 21
9 9 14 19 18 19 18 18 19 16 11 9 9 12 11 12 11 5 5 7 5 6 7 6 10 8 5 3 3 8 14 16 16 15 14 13 13 12 11 10 10 9 9 10 9 9 9 9 10 9 9 9 8 8 8 8 8 8 9 10 10 11 11 12 13 13 13 14 14 14 15 16 18 18 19 20 21 21 21 21 21 22 24 24 24 23
10 8 11 17 16 15 15 15 16 17 18 14 10 11 10 8 9 6 4 6 7 7 7 7 13 10 7 7 10 13 14 15 16 15 13 13 12 12 11 11 11 9 8 9 8 8 8 9 9 9 8 8 8 8 8 8 9 9 10 10 10 10 10 12 13 13 13 13 13 14 15 16 16 17 19 19 20 21 20 19 19 21 23 24 24 24
9 7 6 15 17 14 12 11 11 12 16 16 12 11 9 6 7 7 5 6 7 7 7 7 9 7 7 10 15 17 17 18 17 14 13 13 12 11 10 10 9 8 7 8 8 7 8 9 9 8 7 8 8 9 9 9 10 10 10 10 10 10 11 12 13 13 13 13 13 14 15 16 16 17 18 19 20 21 20 19 18 20 22 23 22 21
6 5 3 10 17 14 10 10 12 12 13 13 12 11 10 7 7 8 7 7 8 7 6 6 6 4 2 8 17 19 18 18 18 14 12 12 13 11 10 8 7 7 7 8 8 7 8 8 8 7 8 8 9 9 9 8 9 10 10 10 10 11 12 12 13 13 14 14 15 16 17 17 17 17 18 19 20 19 19 19 19 20 22 22 21 20
4 5 3 5 12 12 11 13 15 16 15 13 11 10 11 10 9 8 9 9 9 7 6 7 5 3 5 1 11 18 18 17 18 16 13 13 13 11 9 8 8 8 8 7 7 7 8 8 8 8 9 9 9 8 8 9 9 10 10 10 10 11 12 13 13 14 15 16 17 18 18 17 17 18 18 19 19 18 18 19 20 20 22 22 21 19
4 3 4 5 9 12 14 16 16 19 19 16 12 11 12 11 10 9 7 8 8 8 8 8 4 3 6 5 3 9 16 17 17 17 14 12 12 10 9 10 10 9 8 8 8 8 8 8 8 9 9 9 8 8 8 9 9 9 10 9 10 12 13 13 15 16 16 17 18 18 18 17 17 18 18 18 18 18 19 20 20 21 22 21 20 19
6 3 6 7 8 11 14 16 16 19 19 14 13 14 13 12 13 11 8 4 5 7 8 6 3 2 5 8 7 4 12 17 15 15 15 13 10 10 11 11 10 9 9 9 8 8 9 9 9 9 9 8 8 8 8 8 8 9 10 10 11 13 14 15 16 17 16 16 17 18 18 18 18 19 20 19 19 19 19 20 21 20 21 22 21 19
7 6 7 7 8 9 11 12 14 16 15 12 12 15 16 17 17 14 9 5 3 8 10 5 3 3 5 8 8 9 14 16 14 14 15 13 11 10 11 10 9 10 9 9 9 9 9 9 9 8 8 8 8 8 8 9 9 9 11 12 12 14 15 15 16 15 16 16 16 17 18 20 20 22 23 21 21 21 20 21 21 20 21 22 21 20
7 7 7 8 9 9 9 9 10 12 11 10 13 18 20 21 19 11 7 6 5 8 10 3 6 7 8 10 11 13 14 15 14 14 13 13 12 11 10 9 9 9 9 9 9 9 8 9 9 9 9 8 8 9 9 10 10 11 12 13 13 15 15 15 15 14 15 16 17 17 18 20 20 22 23 22 22 22 21 22 23 22 22 22 20 20
5 7 9 10 10 9 11 12 12 12 13 13 15 20 21 20 18 12 7 6 6 6 5 6 13 14 13 15 14 14 15 15 15 14 14 13 12 11 10 9 9 9 9 9 9 8 8 8 9 10 9 8 9 10 10 11 11 12 12 13 15 15 15 15 15 15 15 16 17 18 18 19 19 20 21 21 21 21 20 21 21 21 22 21 20 21
4 6 11 14 13 13 12 10 9 10 13 17 19 20 20 19 18 14 8 7 8 6 3 10 20 18 16 18 18 16 16 16 15 14 14 12 11 11 10 10 10 10 10 10 9 9 9 8 7 8 9 9 11 11 10 11 12 13 14 14 15 15 15 16 16 16 17 18 18 18 18 18 17 18 20 19 19 20 20 20 20 20 20 20 21 20
4 6 10 13 13 12 9 8 11 12 10 15 20 20 18 19 19 15 9 8 8 4 5 14 20 19 18 18 17 16 16 16 15 15 14 12 12 12 11 11 11 11 11 10 10 10 10 9 7 7 8 10 12 11 11 12 13 13 14 13 14 15 16 16 17 18 18 18 18 18 17 17 17 17 18 18 19 20 20 20 21 21 20 21 21 21
6 3 4 9 9 10 9 8 11 13 10 10 14 19 16 15 18 17 10 4 4 8 13 15 14 12 12 14 15 14 14 15 14 14 14 13 13 12 12 12 12 11 11 11 11 10 9 10 10 9 10 11 12 11 11 12 13 12 12 12 14 16 16 16 18 19 18 17 17 17 17 17 18 18 18 19 19 20 20 21 21 22 22 22 22 22
7 1 1 5 8 9 9 8 9 10 9 11 11 16 18 14 12 10 4 7 11 12 16 19 16 9 5 9 14 13 13 14 14 15 14 13 13 13 12 12 12 11 11 11 11 10 9 10 10 11 12 11 11 12 13 13 12 11 13 15 15 15 15 17 19 18 17 17 17 17 17 18 18 19 19 19 20 19 20 21 22 23 23 24 24 24
8 2 1 4 7 5 6 9 8 5 6 9 9 9 9 7 3 2 6 11 15 16 17 17 13 7 5 9 12 12 14 16 16 16 15 13 13 13 12 12 12 11 11 11 11 11 10 10 10 11 12 11 10 13 13 13 12 13 16 16 14 15 19 20 19 17 17 17 17 18 18 18 19 19 19 19 19 19 20 22 22 23 23 24 24 25
7 6 3 3 7 4 3 5 2 2 3 2 4 9 5 8 11 10 9 10 15 16 13 9 8 10 11 12 12 12 14 16 14 14 13 13 13 13 12 13 12 11 11 11 11 11 10 10 10 11 11 11 11 12 13 12 13 15 15 13 12 17 22 21 19 17 17 17 18 18 18 18 19 19 19 20 19 19 21 22 23 23 23 23 23 25
6 6 5 4 4 3 6 5 4 3 5 2 2 9 4 11 15 13 10 8 9 11 11 11 11 12 13 13 13 12 11 12 12 12 12 11 11 11 12 13 12 11 11 11 10 11 11 11 10 10 10 11 11 12 12 12 14 15 13 12 14 20 21 20 18 17 17 18 19 19 19 19 19 19 19 19 19 20 21 22 23 23 24 24 25 26
7 6 4 3 2 3 5 6 5 4 4 2 4 11 2 13 17 17 15 11 11 15 18 21 17 13 12 11 13 12 10 10 12 11 11 10 9 10 12 12 11 11 11 11 10 10 11 11 10 9 10 10 11 11 11 12 14 13 12 14 18 20 20 19 17 17 18 19 20 20 20 20 19 20 20 19 19 20 21 23 24 23 25 28 28 27
8 6 4 3 3 3 3 3 3 1 1 3 2 8 1 11 12 14 13 11 10 12 18 22 18 13 13 12 12 12 11 11 10 8 7 8 9 10 10 9 10 10 10 10 10 10 11 11 11 11 11 11 9 10 12 13 12 11 13 17 19 18 19 18 17 18 18 19 20 21 21 21 20 20 20 20 20 21 21 22 23 23 24 26 28 28
9 8 4 4 2 2 3 2 1 2 1 4 4 3 1 4 6 8 7 6 8 9 14 19 16 12 14 14 13 13 12 12 10 7 6 9 10 10 9 9 11 11 11 11 11 11 12 12 12 12 12 12 11 11 13 12 11 12 15 18 18 17 18 18 18 18 19 19 20 20 20 21 21 21 20 20 21 22 22 22 22 21 22 23 25 27
5 5 5 6 2 0 4 4 0 3 3 3 5 5 1 3 6 9 7 5 7 10 13 16 17 16 16 15 14 13 12 11 7 3 5 9 11 11 11 11 12 12 12 12 12 12 13 13 13 13 14 14 14 14 14 12 12 14 17 18 17 17 18 18 18 18 19 19 19 19 19 20 20 20 21 21 21 21 22 23 23 22 22 23 24 25
1 1 2 5 4 2 3 4 2 2 0 1 4 5 3 4 5 7 5 4 8 11 12 15 18 18 17 16 15 12 9 8 7 6 6 8 11 12 11 12 13 13 13 13 12 13 14 14 14 14 15 16 15 15 15 13 13 15 17 17 17 17 18 18 18 18 19 19 19 19 20 20 20 21 21 22 23 22 21 21 21 21 21 22 23 24
2 2 2 4 5 4 3 2 1 1 1 0 3 5 4 5 3 1 3 5 10 14 14 15 18 17 16 16 14 8 4 6 9 10 9 10 13 13 12 13 14 14 14 13 13 14 14 14 14 15 15 15 14 14 15 13 14 18 18 17 17 18 18 18 18 18 19 19 19 19 20 20 21 22 22 22 23 24 24 24 23 22 22 22 22 22
2 2 2 3 5 6 6 3 2 1 1 0 2 4 4 4 2 2 3 5 11 15 14 15 16 16 15 13 8 2 3 7 11 13 14 13 12 13 14 15 15 14 14 13 13 13 14 14 14 15 14 14 14 14 14 13 15 18 18 17 18 19 18 18 18 18 19 20 20 20 20 20 21 22 22 22 22 23 24 25 26 25 24 24 23 23
2 2 1 1 2 3 4 4 3 2 0 3 2 3 3 0 2 2 4 8 13 15 15 15 15 15 12 8 6 6 10 13 14 14 15 13 11 11 14 16 16 14 14 14 14 13 14 15 15 15 15 15 15 15 15 15 16 18 17 17 17 17 17 16 17 17 18 18 19 20 21 21 22 22 22 22 22 22 23 23 24 24 24 23 23 22
2 2 2 2 2 1 2 3 3 3 2 3 3 1 1 0 3 6 8 11 13 13 14 14 12 12 10 10 10 12 15 16 14 13 14 12 10 11 14 16 15 14 13 13 13 13 14 15 15 15 15 15 15 15 16 16 17 17 17 17 16 15 15 15 15 16 17 17 18 18 18 19 20 21 21 22 23 23 23 22 22 23 23 22 22 21
1 0 1 1 1 1 2 3 1 2 3 2 2 2 5 5 6 9 9 10 11 11 11 10 10 11 12 13 15 15 16 15 13 12 12 11 10 12 14 15 15 14 14 14 13 13 14 15 15 15 16 16 16 16 16 17 17 17 17 17 15 15 15 15 15 16 16 17 18 18 19 19 19 19 20 22 23 24 24 24 23 23 22 22 21 21
2 4 4 3 3 2 3 4 2 3 4 4 3 7 10 10 10 12 11 11 11 10 9 10 11 13 13 15 17 16 15 15 15 13 12 11 11 12 14 14 15 15 15 14 13 13 14 15 15 16 16 16 16 16 16 16 17 17 17 16 15 15 15 15 16 17 17 17 18 18 19 20 20 20 20 22 24 26 26 26 25 24 23 21 20 20
9 10 7 6 7 7 7 5 4 4 6 7 7 9 10 10 11 11 11 10 10 10 10 10 12 14 14 15 16 14 13 14 14 13 12 11 12 13 14 14 14 14 14 14 13 14 14 15 16 16 16 16 15 15 15 16 16 16 16 15 15 15 15 15 16 16 16 17 18 18 18 20 22 23 22 22 23 26 28 28 28 26 25 23 21 20
10 11 8 7 8 6 5 5 5 6 7 8 9 10 10 10 10 9 9 9 10 12 12 13 14 15 14 13 14 14 14 13 13 12 12 10 11 13 13 13 13 13 13 13 13 13 14 15 16 16 16 16 15 15 15 15 15 15 15 14 14 14 15 15 15 15 15 15 15 15 16 18 20 23 24 22 21 23 26 28 30 31 30 28 24 21
6 8 7 6 6 5 6 8 7 6 7 8 8 8 8 10 10 10 10 11 12 14 15 15 15 15 13 13 14 15 15 13 11 12 11 10 10 12 12 13 13 13 12 12 11 12 14 15 15 16 16 15 15 15 15 15 16 15 15 15 14 14 14 14 14 14 14 14 13 13 14 14 16 19 23 24 23 22 22 24 28 31 31 30 27 24
3 6 7 8 9 9 8 9 9 8 8 8 9 9 9 10 12 13 14 15 15 16 16 16 15 15 15 16 15 16 16 13 11 12 10 8 9 10 11 13 14 12 10 12 12 12 14 15 15 15 15 15 14 14 15 15 15 14 14 14 14 14 14 14 14 14 13 13 13 13 13 12 12 13 17 21 24 24 22 21 24 27 28 29 29 28
4 6 8 8 7 6 8 11 10 9 8 7 9 11 12 12 14 15 16 16 16 16 16 16 16 17 18 18 18 16 14 13 13 14 12 10 12 13 12 14 16 13 10 13 16 15 15 15 15 16 16 15 14 14 15 15 14 13 13 13 12 13 14 14 14 15 15 14 14 14 14 14 13 11 11 14 18 21 22 21 21 24 26 28 29 30
7 6 4 4 4 6 12 14 10 9 9 9 10 12 12 13 15 15 16 16 15 15 16 16 17 17 16 18 20 18 15 15 17 17 15 14 16 16 14 15 16 14 12 13 15 15 15 15 16 16 15 14 14 14 15 15 14 14 13 13 12 12 13 13 14 14 14 14 14 14 14 15 15 13 11 10 11 14 16 18 19 20 22 24 26 28
Wind_Direction
196 200 209 213 214 211 214 220 224 234 240 230 213 208 224 229 222 227 193 162 185 201 207 222 217 230 231 179 164 174 207 200 130 134 148 140 135 104 89 79 71 66 5 251 142 126 118 113 110 109 110 108 108 114 116 118 121 121 121 114 106 104 97 83 62 50 47 357 334 316 301 288 271 260 238 233 244 237 232 231 218 212 219 227 227 217
201 211 215 211 216 216 214 220 226 235 247 247 233 210 220 232 224 227 188 156 179 206 205 220 226 232 214 165 168 179 193 172 129 138 155 152 138 104 101 103 101 108 251 220 118 99 105 107 103 103 111 114 113 116 117 117 118 116 114 108 99 94 85 73 66 51 39 4 336 321 311 316 305 287 264 252 258 247 239 237 222 216 222 229 233 229
206 216 215 210 215 221 219 219 223 234 243 250 251 226 216 229 224 227 194 162 175 201 203 211 228 238 200 160 172 188 196 168 137 146 154 150 136 116 122 122 119 140 223 201 128 97 109 114 116 122 122 117 113 116 119 117 116 118 115 106 95 90 83 65 70 51 22 7 333 316 305 309 304 294 284 267 265 258 253 248 231 227 228 227 234 237
205 212 212 212 213 218 223 219 218 232 239 243 252 241 222 221 211 221 206 174 166 185 210 202 219 243 192 158 172 183 198 178 149 157 160 152 141 133 139 137 135 155 205 199 140 112 113 117 125 134 126 115 114 115 116 115 116 116 109 99 95 91 84 63 56 26 5 347 324 316 302 300 293 285 278 269 268 262 255 250 241 238 234 229 229 229
211 203 205 212 212 213 221 220 216 225 231 233 241 243 236 216 209 223 211 173 156 181 222 205 208 241 188 162 169 162 192 196 169 170 166 148 143 139 138 141 142 153 178 180 134 114 128 128 127 120 118 118 111 101 101 110 113 109 103 100 98 93 88 68 51 359 335 328 319 311 296 289 274 266 262 258 261 261 255 250 247 244 240 235 232 230
215 201 198 209 211 211 217 218 216 219 223 228 231 239 247 225 216 220 189 166 164 186 219 216 207 224 185 170 178 172 187 192 168 161 146 128 138 139 128 135 136 133 145 152 143 144 147 149 161 142 136 131 108 90 90 95 94 96 102 105 94 90 97 69 30 321 306 306 302 299 297 294 285 279 271 265 270 274 269 263 258 253 246 242 240 238
217 204 195 205 209 209 216 218 212 213 221 227 217 232 250 247 233 211 164 166 197 189 208 221 216 208 183 173 185 182 172 167 150 146 132 119 130 130 113 122 128 121 127 134 139 143 145 152 154 139 131 120 97 81 77 64 60 66 72 81 83 83 97 61 297 289 294 294 291 293 294 293 294 295 295 298 302 297 287 281 273 263 255 248 243 243
213 209 195 201 210 208 213 219 208 205 218 227 209 223 241 250 246 204 159 168 208 190 203 223 226 225 192 172 186 183 169 178 182 181 169 141 129 121 109 103 109 124 127 123 126 129 128 126 116 110 105 98 85 72 64 47 41 43 38 42 54 41 20 9 308 292 291 291 296 300 297 291 289 291 295 300 302 299 292 287 280 271 266 257 248 246
205 217 202 194 207 213 208 214 211 204 214 227 213 215 226 241 252 229 179 174 194 195 209 221 224 233 206 180 193 189 182 195 193 186 176 143 128 124 125 121 115 131 129 118 118 114 109 101 93 97 99 95 89 79 74 63 45 32 24 27 31 14 7 8 343 323 313 305 308 307 304 302 302 303 303 303 302 300 297 291 286 278 271 264 256 251
193 213 219 201 199 216 210 209 216 209 207 229 227 215 217 231 249 255 226 189 182 202 217 216 214 226 224 182 186 191 189 197 190 165 126 111 117 117 116 121 118 122 121 115 112 106 103 99 95 104 107 102 101 96 97 98 84 65 48 31 26 14 5 360 348 340 333 325 322 316 312 312 314 315 314 312 308 305 302 298 292 285 276 269 265 261
196 194 227 226 198 208 215 207 215 213 197 222 239 220 209 225 239 263 252 206 194 209 219 221 212 212 235 203 186 188 183 183 179 149 114 108 118 117 100 99 107 113 114 113 109 103 100 96 91 95 96 92 92 92 89 84 75 73 64 32 32 41 13 355 351 344 334 328 323 318 313 311 312 314 314 313 312 310 308 304 300 295 288 279 274 271
214 188 211 241 213 205 219 207 209 214 197 209 239 221 198 209 225 252 245 202 202 210 217 225 213 201 220 233 195 175 176 182 178 149 126 127 135 137 137 136 136 121 102 103 101 101 100 96 91 88 84 78 73 70 63 54 43 36 38 21 35 49 31 5 356 346 339 333 324 316 310 307 307 308 307 305 305 306 305 304 304 303 299 293 285 279
221 200 193 225 216 198 211 207 201 213 203 204 229 225 206 195 203 236 230 198 205 215 214 218 216 204 204 271 276 181 178 169 142 120 120 128 128 127 129 125 121 105 97 104 104 102 99 94 92 88 84 76 66 61 54 47 37 30 31 23 24 38 28 8 357 350 345 339 332 326 321 319 318 314 309 306 305 305 305 305 306 307 306 305 300 291
213 211 200 208 206 193 207 212 193 201 204 207 218 221 213 198 191 216 220 202 206 217 216 211 217 210 174 354 348 116 123 95 98 105 118 121 110 107 110 107 107 105 108 112 107 103 98 94 92 87 83 78 70 62 53 47 39 33 34 25 16 21 19 7 357 351 345 339 336 333 330 329 328 325 323 319 315 313 313 313 312 311 311 311 306 298
205 211 203 201 196 191 210 226 211 196 200 209 215 219 217 207 198 208 216 212 207 216 227 218 222 218 143 72 30 80 96 98 112 116 114 111 103 103 104 105 107 105 108 108 103 101 98 96 93 85 78 72 69 65 56 49 40 34 33 22 14 12 10 5 357 351 346 341 339 336 333 331 329 327 325 320 316 315 316 316 315 314 313 310 305 297
207 214 202 194 197 198 207 228 224 201 198 207 215 219 215 210 206 198 211 225 217 217 231 224 211 47 100 85 60 88 99 103 111 112 113 112 109 109 107 107 106 104 109 109 103 101 97 92 87 81 74 65 62 60 56 52 40 34 29 17 12 9 5 2 358 354 351 346 342 339 336 334 333 331 328 323 320 319 320 322 321 320 317 312 306 300
203 212 200 190 198 203 202 219 226 215 200 194 212 219 207 209 217 194 194 218 239 227 217 159 96 91 110 89 69 100 105 108 113 116 120 117 112 110 108 107 105 108 113 106 102 101 97 93 88 81 76 68 63 55 50 48 37 31 27 15 11 11 6 2 359 355 352 348 343 340 338 336 335 333 330 328 327 327 328 330 330 327 322 315 309 305
209 216 203 193 200 203 196 208 226 234 221 192 206 219 203 204 221 215 191 204 209 226 225 155 134 149 150 128 153 137 123 125 129 124 121 119 116 113 111 111 111 115 113 104 103 100 93 90 84 79 75 68 61 54 48 44 36 31 28 20 15 13 7 2 359 355 352 350 346 343 341 337 335 333 331 330 331 332 335 337 335 333 331 325 319 314
214 220 198 189 199 203 193 202 223 233 228 215 207 214 211 205 215 215 202 205 200 215 231 172 146 162 178 154 165 168 153 144 138 130 126 124 121 117 115 118 119 119 115 108 106 100 92 85 76 73 70 64 57 51 47 40 34 31 27 22 16 11 7 5 1 356 354 353 348 343 341 337 334 333 333 333 333 336 340 341 337 337 338 336 333 326
213 230 201 184 193 198 187 200 221 216 215 219 210 204 215 223 217 214 212 210 207 213 221 180 151 179 190 160 169 174 162 152 143 137 136 129 123 122 121 124 126 126 123 117 110 101 94 87 81 75 69 64 55 47 44 37 32 29 23 19 15 12 10 9 5 359 357 355 351 348 344 341 338 336 336 336 337 338 341 343 341 340 339 339 339 335
200 230 242 183 188 194 187 198 216 205 195 209 211 197 201 218 223 223 217 211 214 214 212 197 178 177 138 159 174 168 157 155 147 138 139 132 125 125 126 129 129 125 120 112 106 101 97 93 89 80 70 62 53 47 47 42 36 30 23 19 17 15 12 10 7 3 360 359 357 353 349 346 342 339 338 339 340 341 344 347 347 345 343 342 341 337
189 209 241 195 187 197 199 196 210 215 201 198 210 208 204 208 215 223 216 210 217 217 215 218 194 105 37 159 177 161 150 150 143 136 134 131 126 124 125 127 123 118 113 107 106 104 100 95 88 81 73 65 57 51 49 47 40 32 27 23 21 20 17 14 11 6 5 5 1 356 353 351 345 341 342 345 347 347 348 351 352 350 349 348 344 342
162 202 218 212 197 203 205 197 206 221 217 205 208 216 214 205 208 227 224 205 213 220 226 226 186 79 26 26 106 148 141 136 134 131 128 126 124 120 122 122 117 114 113 112 110 106 103 98 88 81 74 67 63 55 48 48 42 34 28 25 27 26 22 20 17 12 11 8 3 1 0 355 348 347 350 352 352 351 350 354 358 357 354 352 350 352
144 209 212 201 199 208 210 200 200 216 224 219 205 209 222 213 202 218 232 218 212 221 228 220 157 86 38 56 57 90 118 119 123 124 121 123 124 122 122 118 117 120 120 118 114 107 103 95 84 78 74 73 72 62 52 49 44 39 32 27 29 29 25 24 21 18 17 11 6 7 7 1 357 360 2 360 357 357 356 359 1 1 360 359 359 3
153 200 202 192 190 202 210 203 197 205 218 227 210 206 222 222 208 208 220 227 227 227 231 228 121 107 78 88 97 102 110 115 119 121 121 123 124 122 120 120 126 127 119 114 109 101 96 89 82 82 80 78 74 65 59 53 48 44 39 35 33 31 29 26 22 22 21 15 11 12 12 9 8 10 10 9 9 9 7 9 11 9 7 5 5 9
167 190 195 201 193 191 208 211 202 198 207 225 217 207 215 224 223 214 207 217 217 218 226 205 113 122 113 114 122 121 121 123 125 127 125 122 123 122 123 129 131 123 115 111 103 94 91 89 88 88 85 84 80 74 67 58 52 49 44 41 38 37 35 28 23 26 25 19 17 17 17 16 14 14 15 14 15 12 10 15 18 16 14 13 15 16
175 194 201 215 207 199 208 209 206 203 204 213 221 216 211 218 229 228 217 224 216 212 219 135 127 137 140 142 144 138 134 133 133 134 127 123 125 125 128 133 126 119 116 111 103 98 95 91 90 90 90 92 85 76 70 62 57 51 47 44 41 39 36 29 26 30 27 23 22 21 21 20 16 15 16 16 15 12 10 13 15 16 16 18 22 23
192 202 208 221 226 220 214 219 237 232 213 210 218 221 210 207 226 239 229 213 213 225 214 133 135 143 154 157 153 146 141 137 137 134 128 125 126 128 134 133 125 121 117 111 108 107 103 99 95 92 93 94 84 76 72 68 62 55 50 46 42 39 36 30 29 31 29 25 24 23 22 21 19 18 18 18 17 16 14 14 15 17 19 20 25 30
207 211 211 217 230 240 240 256 268 264 246 224 216 219 217 207 214 233 241 226 222 214 147 147 147 150 159 160 151 145 140 135 134 131 127 126 127 133 138 132 127 123 116 113 111 107 104 101 98 92 90 89 82 75 71 68 63 57 53 49 47 45 38 33 32 32 31 27 25 23 22 22 22 21 21 21 21 20 20 19 19 22 23 22 28 36
206 224 216 207 221 244 247 259 263 259 273 269 229 218 225 220 212 221 235 219 150 115 120 129 126 127 146 145 134 134 132 127 129 128 128 132 135 139 138 132 128 122 116 116 111 106 106 105 105 102 94 86 80 76 71 66 62 58 53 49 51 50 41 37 38 34 30 29 26 25 25 26 26 25 25 25 25 25 24 24 26 29 31 33 35 40
195 265 323 203 213 233 236 256 271 260 278 303 271 227 225 233 226 216 179 101 102 105 109 108 97 86 94 108 115 126 129 127 130 132 135 140 140 139 136 130 127 121 119 120 114 110 108 104 104 99 90 85 84 80 71 64 60 56 52 47 44 47 49 48 46 36 29 30 29 27 29 30 29 29 29 29 29 29 28 28 31 33 36 39 41 44
182 172 35 207 215 218 220 233 248 275 313 325 317 277 246 228 205 92 86 109 119 117 111 108 110 120 125 111 115 127 132 133 136 138 140 141 138 137 135 129 125 124 124 122 118 116 108 99 98 92 84 81 80 76 70 66 59 52 51 44 36 48 57 54 47 38 30 29 29 30 32 31 30 32 32 32 32 31 31 32 34 34 35 38 39 42
179 169 142 193 217 196 169 215 212 30 333 335 354 332 348 101 106 80 67 101 122 125 124 123 129 139 139 132 129 136 139 139 139 140 140 140 138 136 133 128 125 126 125 122 121 118 106 95 92 85 82 80 74 69 67 66 62 58 55 45 40 55 60 53 45 39 33 30 30 32 33 33 33 34 34 33 33 32 33 34 36 35 35 37 40 43
187 183 166 170 206 159 108 86 91 181 229 175 343 303 331 94 98 89 74 69 87 101 105 104 107 119 131 136 135 138 140 135 134 137 136 135 135 132 130 128 125 125 123 120 120 114 101 93 86 75 76 82 75 68 67 66 66 65 60 53 54 59 58 53 46 40 35 33 33 34 35 36 36 36 36 35 34 35 35 36 38 38 38 42 45 45
182 180 152 145 177 127 103 100 125 201 235 71 328 296 334 91 91 90 81 62 70 91 103 109 116 125 132 135 131 127 123 119 120 124 125 126 127 123 124 126 126 126 123 117 113 105 96 91 84 70 66 72 72 71 70 65 65 64 61 60 61 59 56 53 47 42 39 37 36 36 38 39 38 39 38 37 36 37 38 38 39 41 43 47 49 48
183 184 155 151 173 144 129 150 159 211 355 101 302 299 61 105 97 87 74 58 72 100 116 122 126 130 128 126 120 115 111 103 92 81 89 105 113 114 117 122 122 119 113 105 100 97 93 88 83 73 64 65 71 77 75 67 63 63 61 60 59 57 55 53 49 45 42 40 38 39 40 41 42 42 42 41 40 39 38 38 39 40 42 45 48 50
192 193 173 157 175 171 139 108 5 303 221 149 168 246 192 112 95 94 88 72 81 104 123 125 121 119 122 122 117 114 110 98 82 58 63 90 103 106 101 97 101 104 103 100 95 93 90 84 80 76 70 64 60 66 75 75 68 63 61 59 58 56 55 54 51 48 45 43 42 41 41 43 45 44 42 42 42 41 41 42 42 39 39 41 44 46
200 200 197 171 145 91 132 112 336 220 199 176 175 184 153 67 92 106 104 94 103 115 126 129 125 125 130 129 125 123 113 98 95 94 88 95 105 111 108 106 110 112 110 105 99 93 88 83 80 78 76 71 60 57 66 73 72 69 64 61 60 58 56 55 54 51 48 47 46 44 44 45 45 44 42 41 41 40 41 44 45 44 42 43 45 44
346 128 219 174 120 78 142 147 185 199 291 306 170 153 109 73 99 114 115 136 144 138 134 136 136 138 139 137 137 141 132 119 134 145 121 112 119 125 126 123 120 115 107 102 99 95 90 87 84 80 78 76 71 67 67 67 70 73 70 65 63 62 60 58 57 55 53 52 51 51 50 48 46 46 46 44 42 41 40 41 43 44 44 46 46 45
276 138 176 173 138 131 152 148 154 119 33 356 158 135 78 26 19 181 188 170 159 154 149 147 146 146 145 146 150 161 155 142 151 150 139 134 135 134 129 122 116 113 109 106 103 100 96 93 88 84 80 78 77 78 75 71 72 74 72 69 67 65 63 61 60 59 57 55 54 53 52 49 48 48 48 46 46 46 46 46 46 48 48 48 48 48
198 120 141 177 164 171 174 154 113 102 75 308 161 119 83 28 331 219 186 145 149 154 154 151 151 151 153 156 160 149 90 116 137 144 141 139 138 134 128 120 115 114 111 108 105 101 97 92 86 84 83 82 81 79 77 75 75 77 76 72 70 70 69 66 63 61 59 58 56 54 52 50 49 49 48 48 48 47 48 47 47 49 49 48 48 49
137 110 111 130 159 186 178 143 123 122 354 314 333 88 86 337 221 158 120 125 138 147 150 150 151 154 150 138 119 105 107 116 129 139 139 136 133 128 124 118 113 111 110 109 107 104 100 95 90 85 83 82 81 80 79 76 73 76 77 73 71 73 73 69 66 63 62 61 59 57 56 53 52 51 49 47 46 45 44 43 42 43 43 44 45 47
73 111 103 87 84 85 123 140 142 131 107 321 313 50 64 305 143 124 117 121 126 137 146 145 143 141 129 114 111 115 118 121 129 136 133 127 121 118 117 115 114 113 112 110 109 108 105 100 95 90 85 83 82 80 81 80 76 75 74 72 70 71 71 70 68 66 65 63 60 58 56 54 53 52 49 46 44 44 42 40 39 39 39 40 41 42
333 354 96 63 11 35 143 149 128 94 87 355 307 108 82 73 103 111 111 116 120 129 139 137 127 123 120 122 125 125 125 128 131 130 125 120 117 116 116 118 118 115 111 108 107 107 105 101 97 93 89 86 85 84 83 83 82 80 76 74 73 72 72 71 68 67 66 65 63 59 56 53 51 52 52 49 46 43 41 39 38 37 37 37 38 40
63 108 109 76 41 47 87 99 88 79 73 53 74 99 86 78 91 101 106 118 126 128 130 128 126 125 127 131 131 129 131 133 131 128 127 125 123 121 120 120 119 115 113 113 110 107 105 103 100 95 92 89 87 86 85 83 83 82 79 78 78 76 75 75 72 70 67 65 65 63 60 56 52 51 54 53 50 46 44 42 41 38 36 35 36 38
124 132 120 102 110 100 77 82 107 100 82 72 78 92 89 83 93 103 111 119 127 131 130 129 130 132 132 132 131 129 132 133 131 130 129 124 120 120 119 116 112 111 113 112 110 108 105 103 102 98 94 93 90 87 87 85 83 82 81 80 79 77 76 76 75 74 72 70 69 68 66 63 59 57 59 59 56 53 50 49 48 44 41 39 36 35
137 139 125 133 156 141 89 106 120 101 99 99 94 96 99 97 100 108 114 118 125 131 131 128 129 130 129 128 129 129 129 130 127 122 116 111 111 111 106 96 89 93 100 102 108 115 111 104 101 99 95 94 92 90 88 86 83 82 81 80 79 78 78 77 75 74 74 72 72 72 74 73 68 65 65 64 61 58 55 54 54 53 50 46 42 37
123 125 112 120 140 121 111 132 129 102 104 111 108 109 109 105 106 111 115 118 121 125 127 127 129 130 129 130 131 130 129 128 123 116 112 110 110 107 98 88 83 87 105 121 129 127 115 105 100 99 96 93 90 90 90 88 86 85 83 81 79 78 78 78 77 76 73 70 69 69 73 78 76 70 69 69 69 66 62 59 59 59 58 54 50 46
84 118 106 103 109 105 114 132 133 118 108 107 110 111 106 106 111 114 116 119 120 121 125 127 127 128 130 132 132 130 126 120 112 110 108 105 107 106 102 99 91 83 103 134 134 118 108 105 103 99 95 92 91 91 90 90 90 90 89 88 86 83 80 75 72 71 69 67 66 63 62 70 81 81 77 75 75 74 72 69 65 64 64 62 58 56
55 102 109 121 133 142 149 151 146 134 122 118 118 114 109 114 119 119 122 125 124 124 126 126 124 125 127 130 132 130 127 124 123 124 122 123 128 127 120 113 102 86 91 119 122 113 105 102 99 97 95 92 91 90 87 86 84 83 84 87 88 89 88 83 75 69 64 60 60 62 59 57 65 80 89 88 85 81 78 75 72 70 68 66 64 61
49 54 67 100 107 131 153 158 151 130 122 120 118 116 117 125 127 125 126 127 125 125 127 127 128 129 129 132 134 133 132 132 133 133 129 127 129 128 120 112 107 100 101 112 116 113 106 100 98 99 98 96 94 91 88 86 82 78 76 76 78 81 84 86 85 81 74 65 60 63 65 60 57 62 74 87 95 93 86 80 77 74 71 69 68 66